Miscellaneous Local Product
Issued by NWS Hastings, NE

Home | Current Version | Previous Version | Text Only | Print | Product List | Glossary Off
Versions: 1 2 3 4 5 6 7 8 9 10 11 12 13 14 15 16 17 18 19 20 21 22 23 24 25 26 27 28 29 30 31 32 33 34 35 36 37 38 39 40 41 42 43 44 45 46 47 48 49 50

000
AXUS43 KGID 291402
MISGRI

GID CWA HOURLY WEATHER ROUNDUP
NATIONAL WEATHER SERVICE HASTINGS NE
900 AM CDT WED MAR 29 2017

NOTE: "FAIR" INDICATES FEW OR NO CLOUDS BELOW 12,000 FEET WITH NO
SIGNIFICANT WEATHER AND/OR OBSTRUCTIONS TO VISIBILITY.

...SOUTH CENTRAL NEBRASKA...

CITY           SKY/WX    TMP DP  RH WIND       PRES   REMARKS
GRAND ISLAND   CLOUDY    43  43 100 NE17      30.00S
HASTINGS       LGT RAIN  44  42  93 NE18G26   29.98F FOG
KEARNEY        CLOUDY    43  39  87 N16       29.99F
ORD            CLOUDY    44  40  85 NE12      30.03S
YORK           LGT RAIN  45  45 100 NE17      29.98F
AURORA         DRIZZLE   44  44 100 NE18      29.99S
LEXINGTON      CLOUDY    43  41  93 NE12      30.00F FOG
HOLDREGE       DRIZZLE   42  41  95 NE17G25   29.97F
HEBRON         DRIZZLE   45  44  97 NE18G24   29.92F

...NEBRASKA PANHANDLE...

CITY           SKY/WX    TMP DP  RH WIND       PRES   REMARKS
CHADRON        PTSUNNY   40  38  93 W3        30.11F
ALLIANCE       CLOUDY    39  38  96 N5        30.09F
SCOTTSBLUFF    CLOUDY    41  37  86 W7        30.11F
SIDNEY         CLOUDY    37  36  96 N14       30.10R WCI  28

...WESTERN AND NORTH CENTRAL NEBRASKA...

CITY           SKY/WX    TMP DP  RH WIND       PRES   REMARKS
VALENTINE      CLOUDY    43  40  89 N5        30.11S
AINSWORTH      CLOUDY    42  42 100 N13       30.10S FOG
ONEILL         CLOUDY    44  43  97 N7        30.09R FOG
BROKEN BOW     CLOUDY    44  40  85 N16       30.02F
IMPERIAL       CLOUDY    41  39  93 N17       30.05R
NORTH PLATTE   CLOUDY    43  40  89 N17G23    30.04R
MCCOOK         CLOUDY    43  42  97 N17G24    29.98S

...EASTERN NEBRASKA...

CITY           SKY/WX    TMP DP  RH WIND       PRES   REMARKS
NORFOLK        LGT RAIN  44  41  89 NE14      30.05S FOG
SO SIOUX CITY  LGT RAIN  45  44  97 E13       30.10S
TEKAMAH        LGT RAIN  45  42  89 NE14      30.05F
COLUMBUS       CLOUDY    45  41  87 NE16G22   30.02F
ALBION         CLOUDY    45  42  89 NE15      30.04F FOG
OMAHA EPPLEY   LGT RAIN  46  41  82 NE15G22   30.02S
OFFUTT AFB     LGT RAIN  45  43  92 NE13G20   29.99S FOG
MILLARD        RAIN      47  45  91 NE8       30.01S
LINCOLN        LGT RAIN  46  44  93 NE17      29.98F FOG
NEBRASKA CITY  LGT RAIN  45  45 100 NE16G22   29.95F
BEATRICE       LGT RAIN  46  46  98 NE14      29.92F
FALLS CITY     CLOUDY    47  46  97 NE15      29.89F

...NORTHERN KANSAS...

CITY           SKY/WX    TMP DP  RH WIND       PRES   REMARKS
GOODLAND       LGT RAIN  39  39 100 N21G26    29.98R FOG     WCI  29
HILL CITY      LGT RAIN  44  43  96 NE22G30   29.91F FOG
NORTON         CLOUDY    41  37  87 N16G24    29.93F FOG
PHILLIPSBURG   CLOUDY    45  45 100 N17G24    29.92S
HAYS             N/A     45  43  93 N24G32    29.82F FOG
RUSSELL        LGT RAIN  46  44  93 N23G30    29.80S FOG
CONCORDIA      LGT RAIN  46  46 100 NE17G32   29.83F
SALINA         RAIN      50  47  89 NE22G36   29.75F FOG
TOPEKA         LGT RAIN  50  49  96 E21G28    29.79F



USA.gov is the U.S. government's official web portal to all federal, state and local government web resources and services.